sat.trackr.live / text

‹ back to catalog

STARLINK-30872

NORAD 58225 · 2023-170V

PAYLOAD ACTIVE UNKNOWN

§ Identity

Operator
Country
US
Launch date
2023-11-03
Launch site
AFETR
Launch vehicle
Mass (kg)
RCS (m²)

Purposes: comms

External: N2YO · Heavens-Above · Gunter

§ Orbital elements

Epoch: 2026-09-20T09:07:32.852640Z

Period
94.27 min
Inclination
43.0025°
Eccentricity
0.0001438
Mean motion
15.27573076 rev/d
Perigee alt
482.1 km
Apogee alt
484.1 km
Semi-major
6,861.2 km
B*
2.0081e-5
RAAN
32.8013°
Arg perigee
269.7416°
Mean anomaly
90.3271°
Rev number
16,174

§ Raw data

STARLINK-308721 58225U 23170V   26263.38024135  .00000290  00000+0  20081-4 0  99952 58225  43.0025  32.8013 0001438 269.7416  90.3271 15.27573076161740

JSON: /api/v1/satellites/58225 · /tle

For live sub-satellite position, see the globe view (requires WebGL).

§ Visibility from observer

Set your observer location to see the next 7 days of passes ≥ 10°. The values pass through the URL so the page stays shareable.

No JS? Fill the form by hand. The geolocation button needs JavaScript.